Find Starlink 5325

NORAD ID: 55292 Int'l Des: 2023-010 Owner: SPXS Country: US Constellation: starlink operational
LEOCIRCULAR

Current View

Loading 3D Globe...

About Starlink 5325

Description loading...

Upcoming Passes

Passes for default location (London). Set your location on the main map for personalized predictions.

Altitude History

Loading altitude history...

Two-Line Element Set

1 55292U 23010Z 26151.16147411 .00000236 00000-0 27586-4 0 9992
2 55292 69.9985 176.4720 0003597 266.9344 93.1403 14.98333282185621
Epoch: May 31, 2026 • Age: 12 hours

Current Status

Altitude 584.1 km
Velocity 7.57 km/s
Sub-Earth Point 60.90°N, 168.3°W
Launch Date Jan 19, 2023
Age 3.3 years
Type internet

Technical Details

Classification Payload
Mass 305.00 kg
Dry Mass 290.00 kg
Total Mass 305.00 kg
Length 0.20 m
Diameter 2.80 m
Span 9.00 m
Shape Box + pan
Manufacturer SPXS
Bus Type Starlink
Phase Status In Orbit
Owner/State SPXS/US

Most Searched